User: anonymous   Login
Location: Christchurch
(43.5330°S, 172.6330°E)
Time: 20:49:46
(UTC+13:00)
Language:

Cosmos 1606 - Orbit

View from above orbital plane
View from above orbital plane
View from above satellite
View from above satellite

Ground track
Ground track

The orbit data is extracted from the following two-line orbital elements,

1 15369U 84111A   19079.82829050 +.00000778 +00000-0 +38370-4 0  9996
2 15369 082.5294 210.9963 0017448 187.3703 172.7276 15.16303449877672
Epoch (UTC): 20 March 2019 19:52:44
Eccentricity: 0.0017448
inclination: 82.5294°
perigee height: 505 km
apogee height: 529 km
right ascension of ascending node: 210.9963°
argument of perigee: 187.3703°
revolutions per day: 15.16303449
mean anomaly at epoch: 172.7276°
orbit number at epoch: 87767

The dashed part of the orbit path shows where the satellite is in the earth's shadow,  

DLR